Date String (YYYY-MM-DD hh:mm:ss) UTC,Instrument flags,Ambient pressure (hPa),Sample flow (lpm),Bypass flow (lpm),Sample temperature (°C),Ambient temperature (°C),ASC tube jacket temperature (°C),LED temperature (°C),Box temperature (°C),Sample RH (%),Span deviation,Mass concentration (μg/m³),Mass concentration (μg/m³),Mass concentration (μg/m³)
DateTimeUTC,F1_M11,P_M11,Q1_M11,Q2_M11,T1_M11,T2_M11,T3_M11,T4_M11,T5_M11,U1_M11,ZSPAN_M11,X2_M11,X0_M11,X1_M11
2023-02-05 19:00:00,,0822.5,5.04,0.00,23.7,22.6,00.0,32.5,25.5,12.7,0000.0,0006.12,0009.51,0005.73
2023-02-05 19:01:00,,0822.4,5.02,0.00,23.7,22.6,00.0,32.5,25.5,12.9,0000.0,0006.11,0009.55,0005.70
2023-02-05 19:02:00,,0822.4,4.96,0.00,23.7,22.6,00.0,32.5,25.5,12.9,0000.0,0006.10,0009.70,0005.68
2023-02-05 19:03:00,,0822.3,5.02,0.00,23.7,22.6,00.0,32.5,25.6,12.8,0000.0,0006.09,0009.81,0005.65
2023-02-05 19:04:00,,0822.4,5.01,0.00,23.8,22.6,00.0,32.5,25.6,12.3,0000.0,0006.07,0009.86,0005.64
2023-02-05 19:05:00,,0822.3,4.96,0.00,23.8,22.6,00.0,32.5,25.6,12.4,0000.0,0006.05,0009.32,0005.62
2023-02-05 19:06:00,,0822.2,5.01,0.00,23.8,22.6,00.0,32.5,25.6,12.4,0000.0,0006.04,0009.31,0005.60
2023-02-05 19:07:00,,0822.2,5.00,0.00,23.8,22.6,00.0,32.5,25.6,12.8,0000.0,0006.04,0009.36,0005.58
2023-02-05 19:08:00,,0822.2,4.95,0.00,23.8,22.6,00.0,32.5,25.7,12.8,0000.0,0006.04,0009.41,0005.57
2023-02-05 19:09:00,,0822.3,5.05,0.00,23.8,22.6,00.0,32.6,25.7,12.8,0000.0,0006.06,0009.44,0005.57
2023-02-05 19:10:00,,0822.4,4.98,0.00,23.8,22.6,00.0,32.6,25.6,12.5,0000.0,0006.05,0009.41,0005.57
2023-02-05 19:11:00,,0822.3,4.98,0.00,23.8,22.7,00.0,32.6,25.6,12.1,0000.0,0006.02,0009.41,0005.57
2023-02-05 19:12:00,,0822.2,5.04,0.00,23.8,22.7,00.0,32.6,25.6,13.1,0000.0,0006.03,0009.57,0005.57
2023-02-05 19:13:00,,0822.1,4.98,0.00,23.8,22.7,00.0,32.6,25.6,13.2,0000.0,0006.03,0009.52,0005.56
2023-02-05 19:14:00,,0822.1,4.97,0.00,23.9,22.8,00.0,32.6,25.7,12.7,0000.0,0006.00,0009.47,0005.57
2023-02-05 19:15:00,,0822.1,5.03,0.00,23.9,22.8,00.0,32.6,25.7,12.9,0000.0,0006.02,0010.08,0005.57
2023-02-05 19:16:00,,0822.1,4.96,0.00,23.9,22.8,00.0,32.6,25.7,12.8,0000.0,0006.03,0010.09,0005.58
2023-02-05 19:17:00,,0822.0,5.01,0.00,23.9,22.8,00.0,32.6,25.7,12.9,0000.0,0006.06,0010.11,0005.59
2023-02-05 19:18:00,,0822.0,5.03,0.00,23.9,22.8,00.0,32.7,25.7,12.6,0000.0,0006.05,0010.03,0005.60
2023-02-05 19:19:00,,0821.8,4.96,0.00,23.9,22.9,00.0,32.7,25.7,12.4,0000.0,0006.05,0010.03,0005.58
2023-02-05 19:20:00,,0821.7,5.01,0.00,23.9,22.9,00.0,32.7,25.7,12.7,0000.0,0006.03,0010.08,0005.56
2023-02-05 19:21:00,,0821.6,5.04,0.00,24.0,22.9,00.0,32.7,25.8,12.5,0000.0,0006.04,0010.17,0005.56
2023-02-05 19:22:00,,0821.6,4.95,0.00,24.0,22.9,00.0,32.7,25.9,12.5,0000.0,0006.04,0010.09,0005.57
2023-02-05 19:23:00,,0821.7,5.00,0.00,24.0,22.9,00.0,32.7,25.9,12.7,0000.0,0006.05,0009.87,0005.59
2023-02-05 19:24:00,,0821.7,5.03,0.00,24.0,22.9,00.0,32.7,25.9,12.3,0000.0,0006.04,0009.77,0005.61
2023-02-05 19:25:00,,0821.7,4.96,0.00,24.0,22.9,00.0,32.8,25.9,12.3,0000.0,0006.06,0009.81,0005.62
2023-02-05 19:26:00,,0821.7,5.01,0.00,24.0,22.9,00.0,32.8,25.9,12.2,0000.0,0006.05,0009.06,0005.63
2023-02-05 19:27:00,,0821.7,5.04,0.00,24.0,22.9,00.0,32.8,25.8,12.8,0000.0,0006.07,0009.10,0005.63
2023-02-05 19:28:00,,0821.6,4.95,0.00,24.0,23.0,00.0,32.8,25.9,13.2,0000.0,0006.11,0009.20,0005.66
2023-02-05 19:29:00,,0821.6,5.02,0.00,24.1,23.0,00.0,32.8,25.9,13.2,0000.0,0006.13,0009.25,0005.67
2023-02-05 19:30:00,,0821.6,5.03,0.00,24.1,23.0,00.0,32.8,26.0,13.0,0000.0,0006.15,0009.22,0005.70
2023-02-05 19:31:00,,0821.6,4.96,0.00,24.1,23.0,00.0,32.8,26.0,13.1,0000.0,0006.21,0009.27,0005.73
2023-02-05 19:32:00,,0821.5,5.01,0.00,24.1,23.0,00.0,32.8,26.0,13.1,0000.0,0006.28,0009.33,0005.77
2023-02-05 19:33:00,,0821.4,5.03,0.00,24.1,23.1,00.0,32.8,26.0,12.9,0000.0,0006.36,0009.57,0005.82
2023-02-05 19:34:00,,0821.4,4.95,0.00,24.1,23.1,00.0,32.9,26.0,13.1,0000.0,0006.40,0009.70,0005.87
2023-02-05 19:35:00,,0821.4,5.01,0.00,24.1,23.1,00.0,32.9,26.1,13.1,0000.0,0006.46,0009.78,0005.91
2023-02-05 19:36:00,,0821.4,5.03,0.00,24.2,23.1,00.0,32.9,26.1,12.9,0000.0,0006.51,0009.82,0005.96
2023-02-05 19:37:00,,0821.4,4.95,0.00,24.2,23.1,00.0,32.9,26.1,12.9,0000.0,0006.58,0009.92,0006.01
2023-02-05 19:38:00,,0821.4,5.02,0.00,24.2,23.1,00.0,32.9,26.1,12.6,0000.0,0006.66,0010.09,0006.07
2023-02-05 19:39:00,,0821.4,5.02,0.00,24.2,23.1,00.0,32.9,26.1,12.9,0000.0,0006.72,0010.15,0006.11
2023-02-05 19:40:00,,0821.4,4.95,0.00,24.2,23.1,00.0,32.9,26.0,12.6,0000.0,0006.76,0010.14,0006.16
2023-02-05 19:41:00,,0821.3,5.03,0.00,24.2,23.1,00.0,32.9,26.0,12.8,0000.0,0006.81,0010.81,0006.20
2023-02-05 19:42:00,,0821.2,5.01,0.00,24.2,23.1,00.0,33.0,26.0,12.5,0000.0,0006.80,0010.76,0006.23
2023-02-05 19:43:00,,0821.2,4.96,0.00,24.2,23.2,00.0,33.0,26.0,12.4,0000.0,0006.81,0010.75,0006.26
2023-02-05 19:44:00,,0821.2,5.02,0.00,24.3,23.2,00.0,33.0,26.1,12.3,0000.0,0006.82,0010.70,0006.28
2023-02-05 19:45:00,,0821.3,5.01,0.00,24.3,23.2,00.0,33.0,26.1,12.6,0000.0,0006.85,0010.66,0006.29
2023-02-05 19:46:00,,0821.3,4.95,0.00,24.3,23.2,00.0,33.0,26.2,12.5,0000.0,0006.90,0010.77,0006.32
2023-02-05 19:47:00,,0821.4,5.02,0.00,24.3,23.3,00.0,33.0,26.2,12.8,0000.0,0006.93,0010.80,0006.33
2023-02-05 19:48:00,,0821.4,5.03,0.00,24.3,23.3,00.0,33.0,26.2,12.3,0000.0,0006.92,0010.76,0006.33
2023-02-05 19:49:00,,0821.4,4.95,0.00,24.3,23.3,00.0,33.1,26.2,12.4,0000.0,0006.92,0010.69,0006.34
2023-02-05 19:50:00,,0821.3,5.03,0.00,24.4,23.3,00.0,33.1,26.2,12.6,0000.0,0006.88,0010.54,0006.36
2023-02-05 19:51:00,,0821.2,5.01,0.00,24.4,23.3,00.0,33.1,26.2,12.8,0000.0,0006.91,0010.61,0006.37
2023-02-05 19:52:00,,0821.1,4.98,0.00,24.4,23.4,00.0,33.1,26.2,12.7,0000.0,0006.92,0010.05,0006.40
2023-02-05 19:53:00,,0821.0,5.03,0.00,24.4,23.4,00.0,33.1,26.3,12.6,0000.0,0006.95,0010.28,0006.41
2023-02-05 19:54:00,,0821.0,4.96,0.00,24.4,23.4,00.0,33.1,26.3,12.7,0000.0,0006.97,0010.89,0006.43
2023-02-05 19:55:00,,0821.0,4.99,0.00,24.4,23.4,00.0,33.2,26.4,12.5,0000.0,0007.00,0010.94,0006.43
2023-02-05 19:56:00,,0821.0,5.02,0.00,24.5,23.4,00.0,33.2,26.4,12.7,0000.0,0007.01,0011.29,0006.45
2023-02-05 19:57:00,,0821.0,4.98,0.00,24.5,23.4,00.0,33.2,26.4,12.6,0000.0,0006.98,0011.67,0006.45
2023-02-05 19:58:00,,0821.0,4.98,0.00,24.5,23.4,00.0,33.2,26.3,12.9,0000.0,0006.98,0012.34,0006.46
2023-02-05 19:59:00,,0821.0,5.02,0.00,24.5,23.4,00.0,33.2,26.4,12.6,0000.0,0007.01,0012.77,0006.49
